Regional Weather Roundup
Issued by NWS

Home | Current Version | Previous Version | Text Only | Print | Product List | Glossary On
Versions: 1 2 3 4 5 6 7 8 9 10 11 12 13 14 15 16 17 18 19 20 21 22 23 24 25 26 27 28 29 30 31 32 33 34 35 36 37 38 39 40 41 42 43 44 45 46 47 48 49 50
000
ASUS43 KMKX 231121
RWRWI

WISCONSIN REGIONAL WEATHER ROUNDUP
NATIONAL WEATHER SERVICE MILWAUKEE/SULLIVAN WI
600 AM CDT TUE SEP 23 2014

NOTE: "FAIR" INDICATES FEW OR NO CLOUDS BELOW 12,000 FEET WITH NO
SIGNIFICANT WEATHER AND/OR OBSTRUCTIONS TO VISIBILITY.

WIZ001-002-006>008-014>016-023>028-231200-
NORTHWEST WISCONSIN

CITY           SKY/WX    TMP DP  RH WIND       PRES   REMARKS
SUPERIOR ARPT  CLEAR     43  43 100 CALM      30.18R FOG
ASHLAND        CLEAR     46  45  96 S5        30.20R
HAYWARD        CLEAR     41  40  96 CALM      30.21R
SIREN          CLEAR     45  43  94 CALM      30.20S
CUMBERLAND     FOG       41  41 100 CALM      30.22R VSB 1/2
RICE LAKE      FOG       43  42  97 CALM      30.23S VSB 1/4
CHETEK         SUNNY     44  44  99 CALM      30.23R FOG
LADYSMITH      CLEAR     44  44  97 CALM      30.24R
EAU CLAIRE     FOG       43  42  97 CALM      30.23R VSB 1/2
MENOMONIE      FOG       46  46  99 E3        30.23R VSB<1/4
NEW RICHMOND   CLEAR     48  47  99 CALM      30.21S
OSCEOLA        CLEAR     46  46 100 CALM      30.23R
$$

WIZ003>005-009-010-017-018-231200-
NORTH CENTRAL WISCONSIN

CITY           SKY/WX    TMP DP  RH WIND       PRES   REMARKS
MANITOWISH WTR FOG       39  39 100 CALM      30.23R VSB 3/4
ARBOR VITAE    CLEAR     42  41  95 CALM      30.23R
WOODRUFF       CLEAR     42  41  95 CALM      30.23R
RHINELANDER    FOG       42  42 100 CALM      30.25R VSB 1/4
EAGLE RIVER    FOG       39  39 100 CALM      30.23R VSB 1/2
LAND O LAKES   CLEAR     37  37 100 CALM      30.24R
PHILLIPS       CLEAR     42  41  97 CALM      30.23S
TOMAHAWK       CLEAR     38  37  97 CALM      30.25R
MEDFORD        CLEAR     40  40 100 CALM      30.24S
MERRILL        CLOUDY    37  37 100 CALM      30.25S FOG
$$

WIZ029-030-035-036-043>047-231200-
CENTRAL WISCONSIN

CITY           SKY/WX    TMP DP  RH WIND       PRES   REMARKS
WAUSAU         CLEAR     44  44 100 E3        30.24R
MOSINEE        CLEAR     45  45 100 CALM      30.26R
MARSHFIELD     FOG       47  45  93 CALM      30.25R VSB 1/2
STEVENS POINT  CLEAR     39  39  97 CALM      30.27R
WAUPACA        CLEAR     46  44  95 CALM      30.26R
WAUTOMA        CLEAR     40  40 100 CALM      30.27R
WISC RAPIDS    PTCLDY    42  42 100 CALM      30.27S
CAMP DOUGLAS   CLEAR     42  42 100 SE3       30.26R
$$

WIZ011>013-019>022-031-037>040-048>050-231200-
NORTHEAST WISCONSIN

CITY           SKY/WX    TMP DP  RH WIND       PRES   REMARKS
ANTIGO         FOG       41  41 100 CALM      30.26R VSB 3/4
SHAWANO        SUNNY     47  46  95 CALM      30.25S
OCONTO         SUNNY     45  45 100 CALM      30.23R
STURGEON BAY   CLEAR     54  48  82 SW6       30.24R
GREEN BAY      CLEAR     46  45  96 S3        30.25R FOG
MANITOWOC      CLEAR     52  50  93 W6        30.26R
APPLETON       PTCLDY    48  48 100 W8        30.26R
CLINTONVILLE   MOCLDY    43  43 100 CALM      30.26R FOG
OSHKOSH        CLEAR     49  47  93 S5        30.25S
$$

WIZ032>034-041-042-053>061-231200-
SOUTHWEST WISCONSIN

CITY           SKY/WX    TMP DP  RH WIND       PRES   REMARKS
LA CROSSE      FOG       51  50  96 SE6       30.25R VSB 1
SPARTA         FOG       39  39 100 CALM      30.27R VSB 3/4
VIROQUA        SUNNY     50  48  94 S3        30.26S
BOSCOBEL       FOG       45  44  97 CALM      30.28S VSB 1/4
PRAIRIE DU CHI CLEAR     46  44  95 SE3       30.27R
PLATTEVILLE    CLEAR     47  45  92 SE5       30.29S
$$

WIZ056-057-062-063-064-067-068-231200-
SOUTH CENTRAL WISCONSIN

CITY           SKY/WX    TMP DP  RH WIND       PRES   REMARKS
REEDSBURG      SUNNY     42  41  98 CALM      30.27R
BARABOO/DELLS  CLEAR     49  46  87 SW3       30.27R
LONE ROCK      HAZE      46  41  82 CALM      30.28R VSB 1/4
MINERAL POINT  CLEAR     50  45  81 S5        30.28R
MADISON        CLEAR     46  44  93 CALM      30.28R
MIDDLETON        N/A     43  43  99 CALM      30.28S VSB 3/4
WATERTOWN      CLEAR     42  42  98 CALM      30.28R
MONROE         CLEAR     46  45  93 SW7       30.28R
JANESVILLE     CLEAR     46  45  93 CALM      30.28S
$$

WIZ051-052-058>065-066-070>072-231200-
SOUTHEAST WISCONSIN

CITY           SKY/WX    TMP DP  RH WIND       PRES   REMARKS
MILWAUKEE      CLEAR     54  44  69 VRB3      30.28S
WAUKESHA       CLEAR     43  43 100 S3        30.29S
MILWAUKEE/TIMM CLEAR     48  43  81 CALM      30.29R
RACINE         CLEAR     51  45  79 W5        30.30R
BURLINGTON     FOG       39  39 100 CALM      30.29R VSB 1/2
KENOSHA        CLEAR     44  43  96 SW5       30.30R
FOND DU LAC    CLEAR     47  44  90 S5        30.27R
SHEBOYGAN      CLEAR     44  43  96 CALM      30.27R
WEST BEND      CLEAR     41  39  93 CALM      30.27S
JUNEAU         CLEAR     43  42  97 CALM      30.29R
$$

LSZ147-162-231200-
LAKE SUPERIOR

STATION/POSITION TIME  TEMP    WIND        PRES    WAVE
                       AIR SEA DIR/SP/G            HT/PER
                 (UTC) (F)     (DEG/KT/KT) (MB)    (FT/S)
W MID LAKE BUOY  1050   51 48  240/ 10/ 12 1021.1R   2/ 4
DEVILS ISLAND    1100   57     230/ 11/ 12 1021.7R
PORT WING        1000   53     140/  2/  5 1022.0R
SAXON HARBOR     1040   54     190/  5/  7 1022.4R
$$

LMZ867-665-643>646-231200-
LAKE MICHIGAN

STATION/POSITION TIME  TEMP    WIND        PRES    WAVE
                       AIR SEA DIR/SP/G            HT/PER
                 (UTC) (F)     (DEG/KT/KT) (MB)    (FT/S)
CHAMBERS ISLAND  1000   55     210/  4/  9 1023.0R
S GREEN BAY BUOY 1100   57                 1024.5R
N MID LAKE BUOY  1050   57 57  240/ 12/ 14 1022.6R   2/ 5
NORTHPORT PIER   1101   57     270/  5/ 11 1022.7R
SISTER BAY       0942          270/  7/  8   N/A
KEWAUNEE LAKESHO 1100   51     300/  6/  9 1022.9R
SHEBOYGAN LAKESH 1100   53 54  260/ 10/ 11 1025.1R
PORT WASHINGTON  1000   54     270/  5/  7 1025.1
ATWATER BUOY     1100   56     240/ 10/ 14 1026.0R
S MID LAKE BUOY  1050   60 62  230/ 12/ 14 1025.8R   2/ 4
KENOSHA   LAKESH 1100   54     250/ 11/ 13 1025.4R
$$

TC  - TEMPERATURE IN CELSIUS
VSB - VISIBILITY IN STATUTE MILES
WCI - WIND CHILL INDEX
HX  - HEAT INDEX




USA.gov is the U.S. government's official web portal to all federal, state and local government web resources and services.